Location: Brompton
(51.4000°N, 0.5333°E)
Time: 16:40:10
(UTC+00:00)

Iridium 4 Rocket - Pass Details

Date: 11 May 2021
Orbit: 583 x 906 km, 86.9° (Epoch: 23 June)

Event Time Altitude Azimuth Distance (km) Brightness Sun altitude
Exits shadow 21:30:58 13° 179° (S) 2,294 5.5 -13.8°
Maximum altitude 21:36:08 85° 92° (E) 912 3.8 -14.2°
Drops below altitude 10° 21:42:06 10° 4° (N) 2,601 7.0 -14.7°
Sets 21:44:34 0° 5° (N) 3,537 7.9 -14.9°
